Regional Weather Roundup
Issued by NWS

Home | Current Version | Previous Version | Text Only | Print | Product List | Glossary On
Versions: 1 2 3 4 5 6 7 8 9 10 11 12 13 14 15 16 17 18 19 20 21 22 23 24 25 26 27 28 29 30 31 32 33 34 35 36 37 38 39 40 41 42 43 44 45 46 47 48 49 50
580
ASUS44 KJAN 292310
RWRMS

MISSISSIPPI HOURLY WEATHER ROUNDUP
NATIONAL WEATHER SERVICE JACKSON MS
600 PM CDT WED OCT 29 2014

NOTE: "FAIR: INDICATES FEW OR NO CLOUDS BELOW 12,000 FEET WITH NO
SIGNIFICANT WEATHER AND/OR OBSTRUCTIONS TO VISIBILITY.

MSZ001>002-007>008-010>013-018>021-025>028-034>036-300000-
NORTHWEST MISSISSIPPI

CITY           SKY/WX    TMP DP  RH WIND       PRES   REMARKS
CLARKSDALE     FAIR      64  50  59 N7        30.14S
CLEVELAND      FAIR      64  49  58 N5        30.12F
GREENWOOD      CLEAR     63  45  51 N3        30.12S
GREENVILLE     CLEAR     66  43  43 N7        30.12S
GRENADA        FAIR      61  45  55 CALM      30.12S
OLIVE BRANCH   PTCLDY    61  43  51 N7        30.14S
OXFORD         FAIR      63  43  48 N3        30.14S
TUNICA         CLEAR     63  46  55 N5        30.14S
$$

MSZ003>006-009-014>017-022>024-029>033-037>039-300000-
NORTHEAST MISSISSIPPI

CITY           SKY/WX    TMP DP  RH WIND       PRES   REMARKS
COLUMBUS AFB   CLEAR     63  43  48 N5        30.10S
CORINTH        FAIR      63  37  39 NW3       30.11S
GOLDN TRIANGLE CLEAR     66  41  39 N9        30.10R
STARKVILLE     FAIR      63  41  45 CALM      30.11R
TUPELO         CLEAR     64  42  44 N5        30.11S
$$

MSZ040-058-300000-
CENTRAL MISSISSIPPI

CITY           SKY/WX    TMP DP  RH WIND       PRES   REMARKS
JACKSON INTL   CLEAR     67  46  47 N7        30.10R
JACKSON HAWKNS CLEAR     69  44  40 N5        30.10S
MERIDIAN KEY   CLEAR     65  47  52 N9        30.09R
MERIDIAN NAS   PTCLDY    66  51  58 N6        30.09R
RAYMOND        FAIR      66  63  88 MISG      30.10S
VICKSBURG      CLEAR     65  47  52 N5        30.11S
$$

MSZ059>079-300000-
SOUTH MISSISSIPPI

CITY           SKY/WX    TMP DP  RH WIND       PRES   REMARKS
BROOKHAVEN     FAIR      70  54  56 N6        30.09R
COLUMBIA         N/A     70  63  78 MISG      30.04S
HATTIESBURG    MOCLDY    73  63  70 N7        30.05R
MCCOMB         PTCLDY    71  60  68 N6        30.07R
NATCHEZ        MOCLDY    66  48  52 N7        30.10S
PINE BELT      PTCLDY    70  61  73 N5        30.07R
$$

MSZ080>082-300000-
COASTAL MISSISSIPPI

CITY           SKY/WX    TMP DP  RH WIND       PRES   REMARKS
BAY ST LOUIS   MOCLDY    77  63  61 MISG      30.01R
BILOXI         PTCLDY    77  66  68 NE3       30.01R
PASCAGOULA     CLOUDY    75  68  78 CALM      30.01R
GULFPORT       PTCLDY    78  66  66 NE6       30.00R
$$



USA.gov is the U.S. government's official web portal to all federal, state and local government web resources and services.